VIR7B EGLL-KLAX

Flight info

Callsign VIR7B
Flight time N/A
Altitude 36000
Route CPT DCT DIDZA N14 BIBPE DCT OKTAD DCT AZCAL DCT MEDOG DCT KRAGY DCT PEMOB DCT VATRY DCT ADMUP DCT DIRUM DCT KORAK DCT PIKIL/M085F360 DCT 57N020W 59N030W 60N040W 60N050W DCT TOXIT/N0483F360 N904A LAKES/N0483F380 DCT DUSMA DCT GABOV DCT HML DCT DIK DCT BOY/N0488F400 DCT FBR DCT MLF DCT WINEN/N0485F410 Q73 EEVUN/N0482F400 Q73 HAKMN ANJLL4
Aircraft A35K/H-SDE2E3GHIJ3J4J5LM1ORWXY/LB1D1

Departure

Time N/A
Airport London Heathrow Airport (EGLL)

Arrival

Time 2026-04-24 18:56
Airport Los Angeles International Airport (KLAX)
Time Latitude Longitude Altitude Speed Heading
2026-04-24 15:13 56.39203 -71.07426 38489 ft 514 kts 249°
2026-04-24 15:14 56.27454 -71.54478 38485 ft 511 kts 249°
2026-04-24 15:14 56.15678 -72.00654 38476 ft 511 kts 248°
2026-04-24 15:15 56.03603 -72.47036 38468 ft 511 kts 248°
2026-04-24 15:15 55.91453 -72.92756 38461 ft 509 kts 248°
2026-04-24 15:16 55.79112 -73.38278 38445 ft 509 kts 247°
2026-04-24 15:16 55.66735 -73.83040 38436 ft 505 kts 246°
2026-04-24 15:17 55.54164 -74.27629 38420 ft 503 kts 245°
2026-04-24 15:17 55.41596 -74.71372 38402 ft 502 kts 245°
2026-04-24 15:18 55.28805 -75.15055 38390 ft 499 kts 244°
2026-04-24 15:18 55.15993 -75.58014 38376 ft 499 kts 244°
2026-04-24 15:19 55.03021 -76.00737 38378 ft 500 kts 243°
2026-04-24 15:19 54.89816 -76.43448 38363 ft 502 kts 243°
2026-04-24 15:20 54.81938 -76.68572 38360 ft 502 kts 243°
2026-04-24 15:20 54.75267 -76.89638 38357 ft 503 kts 243°
2026-04-24 15:21 54.68460 -77.10955 38356 ft 506 kts 243°
2026-04-24 15:21 54.61625 -77.32163 38349 ft 506 kts 243°
2026-04-24 15:22 54.54713 -77.53422 38337 ft 508 kts 243°
2026-04-24 15:23 54.44233 -77.85311 38321 ft 514 kts 243°
2026-04-24 15:23 54.34778 -78.13722 38319 ft 514 kts 243°
2026-04-24 15:25 54.16843 -78.66719 38310 ft 515 kts 243°
2026-04-24 15:26 53.98680 -79.19254 38299 ft 515 kts 243°
2026-04-24 15:27 53.76592 -79.81668 38294 ft 513 kts 243°
2026-04-24 15:28 53.64560 -80.24671 38282 ft 507 kts 255°
2026-04-24 15:29 53.59684 -80.46870 38276 ft 507 kts 255°
2026-04-24 15:31 53.42016 -81.24756 38250 ft 510 kts 254°
2026-04-24 15:33 53.21232 -82.12883 38256 ft 505 kts 253°
2026-04-24 15:34 53.08101 -82.66767 38214 ft 500 kts 252°
2026-04-24 15:35 52.94815 -83.19976 38194 ft 496 kts 251°
2026-04-24 15:36 52.89483 -83.40977 38185 ft 496 kts 251°
2026-04-24 15:36 52.81410 -83.72406 38176 ft 492 kts 250°
2026-04-24 15:37 52.76044 -83.93055 38168 ft 492 kts 250°
2026-04-24 15:37 52.70625 -84.13714 38157 ft 487 kts 249°
2026-04-24 15:38 52.65219 -84.34147 38152 ft 487 kts 249°
2026-04-24 15:38 52.59754 -84.54614 38141 ft 487 kts 249°
2026-04-24 15:39 52.54255 -84.75022 38124 ft 487 kts 249°
2026-04-24 15:39 52.48758 -84.95244 38124 ft 487 kts 249°
2026-04-24 15:40 52.43210 -85.15481 38111 ft 483 kts 248°
2026-04-24 15:40 52.37694 -85.35417 38088 ft 482 kts 248°
2026-04-24 15:41 52.32131 -85.55373 38079 ft 481 kts 247°
2026-04-24 15:41 52.26593 -85.75044 38062 ft 474 kts 246°
2026-04-24 15:42 52.21053 -85.94578 38060 ft 474 kts 246°
2026-04-24 15:42 52.15550 -86.13802 38050 ft 467 kts 245°
2026-04-24 15:43 52.10034 -86.32938 38014 ft 465 kts 245°
2026-04-24 15:43 52.04548 -86.51812 38005 ft 464 kts 245°
2026-04-24 15:44 51.99009 -86.70723 37986 ft 462 kts 243°
2026-04-24 15:44 51.93472 -86.89458 37987 ft 460 kts 243°
2026-04-24 15:45 51.87927 -87.08094 37972 ft 460 kts 243°
2026-04-24 15:45 51.82321 -87.26787 37953 ft 463 kts 242°
2026-04-24 15:46 51.76685 -87.45428 37937 ft 463 kts 242°
2026-04-24 15:46 51.70973 -87.64169 37925 ft 465 kts 241°
2026-04-24 15:47 51.65219 -87.82907 37908 ft 466 kts 241°
2026-04-24 15:47 51.59469 -88.01491 37898 ft 466 kts 240°
2026-04-24 15:48 51.53709 -88.19982 37895 ft 452 kts 240°
2026-04-24 15:48 51.48060 -88.37957 37886 ft 449 kts 240°
2026-04-24 15:49 51.42429 -88.55749 37883 ft 449 kts 240°
2026-04-24 15:49 51.36769 -88.73512 37879 ft 448 kts 239°
2026-04-24 15:50 51.31060 -88.91301 37870 ft 447 kts 239°
2026-04-24 15:50 51.25372 -89.08894 37880 ft 447 kts 238°
2026-04-24 15:51 51.19628 -89.26534 37862 ft 447 kts 238°
2026-04-24 15:51 51.13917 -89.43951 37856 ft 446 kts 238°
2026-04-24 15:52 51.08135 -89.61456 37856 ft 447 kts 237°
2026-04-24 15:52 51.02343 -89.78874 37852 ft 447 kts 237°
2026-04-24 15:53 50.96506 -89.96306 37845 ft 446 kts 237°
2026-04-24 15:53 50.90641 -90.13697 37844 ft 449 kts 236°
2026-04-24 15:54 50.84730 -90.31107 37833 ft 448 kts 236°
2026-04-24 15:54 50.78814 -90.48411 37867 ft 448 kts 236°
2026-04-24 15:55 50.72774 -90.65942 37829 ft 454 kts 236°
2026-04-24 15:55 50.66758 -90.83309 37822 ft 454 kts 235°
2026-04-24 15:56 50.60638 -91.00841 37813 ft 460 kts 235°
2026-04-24 15:56 50.54413 -91.18551 37815 ft 463 kts 235°
2026-04-24 15:57 50.48180 -91.36170 37819 ft 463 kts 234°
2026-04-24 15:57 50.41824 -91.53995 37817 ft 471 kts 234°
2026-04-24 15:58 50.35424 -91.71843 37826 ft 472 kts 234°
2026-04-24 15:58 50.28921 -91.89837 37808 ft 474 kts 234°
2026-04-24 15:59 50.22371 -92.07831 37803 ft 477 kts 234°
2026-04-24 15:59 50.15793 -92.25787 37815 ft 477 kts 233°
2026-04-24 16:00 50.09181 -92.43699 37835 ft 481 kts 233°
2026-04-24 16:00 50.02498 -92.61689 37845 ft 481 kts 233°
2026-04-24 16:01 49.95764 -92.79688 37844 ft 482 kts 233°
2026-04-24 16:01 49.88976 -92.97698 37842 ft 483 kts 233°
2026-04-24 16:02 49.82187 -93.15598 37843 ft 483 kts 233°
2026-04-24 16:02 49.75307 -93.33608 37845 ft 486 kts 233°
2026-04-24 16:03 49.68413 -93.51531 37852 ft 486 kts 233°
2026-04-24 16:03 49.61473 -93.69456 37849 ft 486 kts 234°
2026-04-24 16:04 49.54529 -93.87263 37853 ft 486 kts 234°
2026-04-24 16:04 49.47805 -94.05319 37856 ft 493 kts 243°
2026-04-24 16:05 49.41952 -94.35813 37859 ft 496 kts 249°
2026-04-24 16:06 49.36297 -94.66179 37875 ft 492 kts 249°
2026-04-24 16:07 49.30567 -94.96320 37880 ft 490 kts 249°
2026-04-24 16:07 49.24783 -95.26278 37875 ft 488 kts 248°
2026-04-24 16:08 49.18975 -95.55896 37876 ft 485 kts 248°
2026-04-24 16:09 49.13078 -95.85515 37877 ft 484 kts 248°
2026-04-24 16:09 49.09132 -96.05086 37881 ft 483 kts 248°
2026-04-24 16:11 48.99073 -96.54115 37871 ft 485 kts 247°
2026-04-24 16:11 48.95005 -96.73602 37864 ft 486 kts 247°
2026-04-24 16:12 48.88803 -97.02965 37894 ft 486 kts 247°
2026-04-24 16:13 48.81837 -97.27852 37852 ft 478 kts 240°
2026-04-24 16:14 48.70151 -97.64013 37857 ft 477 kts 240°
2026-04-24 16:14 48.61324 -97.91077 37857 ft 476 kts 240°
2026-04-24 16:15 48.52503 -98.17838 37864 ft 476 kts 239°
2026-04-24 16:16 48.43583 -98.44617 37864 ft 476 kts 239°
2026-04-24 16:17 48.28617 -98.88924 37859 ft 475 kts 239°
2026-04-24 16:18 48.16500 -99.24244 37865 ft 476 kts 239°
2026-04-24 16:19 48.07351 -99.50597 37875 ft 478 kts 239°
2026-04-24 16:20 47.98106 -99.76966 37870 ft 478 kts 239°
2026-04-24 16:20 47.88758 -100.03353 37867 ft 481 kts 239°
2026-04-24 16:21 47.79284 -100.29819 37869 ft 483 kts 240°
2026-04-24 16:22 47.72950 -100.47384 37864 ft 482 kts 240°
2026-04-24 16:22 47.63421 -100.73578 37870 ft 480 kts 239°
2026-04-24 16:23 47.57078 -100.90868 37868 ft 480 kts 239°
2026-04-24 16:24 47.47414 -101.17000 37890 ft 481 kts 239°
2026-04-24 16:24 47.41022 -101.34141 37909 ft 479 kts 240°
2026-04-24 16:25 47.34569 -101.51338 37917 ft 479 kts 239°
2026-04-24 16:25 47.28078 -101.68524 37923 ft 478 kts 240°
2026-04-24 16:26 47.18327 -101.94138 37902 ft 477 kts 240°
2026-04-24 16:27 47.08560 -102.19552 37894 ft 477 kts 239°
2026-04-24 16:27 47.02015 -102.36450 37904 ft 477 kts 239°
2026-04-24 16:28 46.95439 -102.53321 37902 ft 477 kts 239°
2026-04-24 16:28 46.85347 -102.78331 37893 ft 476 kts 232°
2026-04-24 16:29 46.77066 -102.93453 37887 ft 476 kts 230°
2026-04-24 16:30 46.60252 -103.23307 37946 ft 477 kts 231°
2026-04-24 16:30 46.51825 -103.38187 37954 ft 477 kts 231°
2026-04-24 16:31 46.43350 -103.53068 37963 ft 479 kts 231°
2026-04-24 16:31 46.34836 -103.67937 37956 ft 479 kts 231°
2026-04-24 16:32 46.26309 -103.82749 37973 ft 480 kts 231°
2026-04-24 16:32 46.17733 -103.97569 37979 ft 480 kts 231°
2026-04-24 16:33 46.09152 -104.12314 37970 ft 480 kts 232°
2026-04-24 16:33 46.00597 -104.26940 37997 ft 480 kts 231°
2026-04-24 16:34 45.94734 -104.36918 38015 ft 480 kts 231°
2026-04-24 16:34 45.90423 -104.44234 38010 ft 478 kts 231°
2026-04-24 16:35 45.86142 -104.51477 38010 ft 477 kts 231°
2026-04-24 16:35 45.81836 -104.58744 38010 ft 477 kts 231°
2026-04-24 16:36 45.77558 -104.65946 38015 ft 477 kts 231°
2026-04-24 16:36 45.73247 -104.73185 38014 ft 475 kts 231°
2026-04-24 16:37 45.68948 -104.80383 38018 ft 475 kts 231°
2026-04-24 16:37 45.64673 -104.87525 38018 ft 475 kts 231°
2026-04-24 16:38 45.60362 -104.94708 38017 ft 475 kts 231°
2026-04-24 16:38 45.56072 -105.01837 38016 ft 474 kts 231°
2026-04-24 16:39 45.51785 -105.08941 38022 ft 473 kts 231°
2026-04-24 16:39 45.47492 -105.16039 38018 ft 472 kts 231°
2026-04-24 16:40 45.43178 -105.23153 38017 ft 472 kts 231°
2026-04-24 16:40 45.38889 -105.30209 38018 ft 473 kts 231°
2026-04-24 16:41 45.34578 -105.37282 38015 ft 473 kts 231°
2026-04-24 16:41 45.30290 -105.44299 38011 ft 472 kts 231°
2026-04-24 16:42 45.25978 -105.51338 38022 ft 471 kts 231°
2026-04-24 16:42 45.21671 -105.58351 38022 ft 470 kts 231°
2026-04-24 16:43 45.17395 -105.65297 38018 ft 470 kts 231°
2026-04-24 16:43 45.13069 -105.72307 38019 ft 470 kts 231°
2026-04-24 16:44 45.08781 -105.79238 38019 ft 470 kts 231°
2026-04-24 16:44 45.04452 -105.86217 38016 ft 470 kts 231°
2026-04-24 16:45 45.00134 -105.93160 38027 ft 468 kts 231°
2026-04-24 16:45 44.95851 -106.00032 38014 ft 468 kts 231°
2026-04-24 16:46 44.91538 -106.06934 38031 ft 468 kts 231°
2026-04-24 16:46 44.87247 -106.13784 38033 ft 468 kts 231°
2026-04-24 16:47 44.82924 -106.20669 38023 ft 468 kts 230°
2026-04-24 16:47 44.78593 -106.27548 38029 ft 468 kts 231°
2026-04-24 16:48 44.74299 -106.34353 38035 ft 466 kts 231°
2026-04-24 16:48 44.70007 -106.41138 38044 ft 466 kts 231°
2026-04-24 16:49 44.65690 -106.47945 38024 ft 466 kts 231°
2026-04-24 16:49 44.61372 -106.54739 38009 ft 466 kts 231°
2026-04-24 16:50 44.57062 -106.61503 37983 ft 466 kts 230°
2026-04-24 16:50 44.52744 -106.68263 37954 ft 466 kts 231°
2026-04-24 16:51 44.48428 -106.75004 37923 ft 464 kts 230°
2026-04-24 16:51 44.44084 -106.81771 37934 ft 467 kts 230°
2026-04-24 16:52 44.39741 -106.88524 38044 ft 468 kts 230°
2026-04-24 16:52 44.35388 -106.95274 38046 ft 468 kts 230°
2026-04-24 16:53 44.31018 -107.02035 38033 ft 469 kts 230°
2026-04-24 16:53 44.26661 -107.08756 38017 ft 467 kts 231°
2026-04-24 16:54 44.22323 -107.15439 38019 ft 464 kts 231°
2026-04-24 16:54 44.17984 -107.22103 38015 ft 464 kts 231°
2026-04-24 16:55 44.13623 -107.28783 38018 ft 464 kts 230°
2026-04-24 16:55 44.09282 -107.35418 38015 ft 464 kts 230°
2026-04-24 16:56 44.04954 -107.42019 38018 ft 464 kts 230°
2026-04-24 16:56 44.00586 -107.48663 38018 ft 462 kts 231°
2026-04-24 16:57 43.96287 -107.55188 38021 ft 460 kts 231°
2026-04-24 16:57 43.91947 -107.61763 38023 ft 462 kts 231°
2026-04-24 16:58 43.87591 -107.68346 38022 ft 464 kts 230°
2026-04-24 16:58 43.83247 -107.74894 38023 ft 464 kts 230°
2026-04-24 16:59 43.78855 -107.81499 37974 ft 464 kts 230°
2026-04-24 17:00 43.72324 -107.91290 37989 ft 462 kts 230°
2026-04-24 17:00 43.66496 -108.00003 38004 ft 462 kts 230°
2026-04-24 17:01 43.59952 -108.09752 37983 ft 463 kts 230°
2026-04-24 17:02 43.53368 -108.19527 38002 ft 462 kts 230°
2026-04-24 17:02 43.48985 -108.26013 38008 ft 461 kts 230°
2026-04-24 17:03 43.44283 -108.32078 38453 ft 466 kts 223°
2026-04-24 17:03 43.41776 -108.34834 38677 ft 468 kts 222°
2026-04-24 17:03 43.39205 -108.37588 38852 ft 469 kts 221°
2026-04-24 17:04 43.36617 -108.40322 39052 ft 469 kts 221°
2026-04-24 17:04 43.31419 -108.45786 39266 ft 473 kts 220°
2026-04-24 17:04 43.28789 -108.48553 39391 ft 475 kts 220°
2026-04-24 17:05 43.26160 -108.51319 39587 ft 474 kts 221°
2026-04-24 17:05 43.23556 -108.54060 39790 ft 473 kts 221°
2026-04-24 17:05 43.18333 -108.59555 39911 ft 474 kts 221°
2026-04-24 17:06 43.15701 -108.62320 39910 ft 474 kts 221°
2026-04-24 17:06 43.07884 -108.70516 39919 ft 474 kts 221°
2026-04-24 17:07 43.02617 -108.76022 39951 ft 473 kts 221°
2026-04-24 17:08 42.92172 -108.86905 39919 ft 473 kts 220°
2026-04-24 17:08 42.86918 -108.92363 39904 ft 474 kts 220°
2026-04-24 17:09 42.76463 -109.03184 39859 ft 472 kts 221°
2026-04-24 17:10 42.66005 -109.13965 39829 ft 472 kts 221°
2026-04-24 17:12 42.45089 -109.35382 39793 ft 471 kts 221°
2026-04-24 18:54 33.95610 -118.36531 735 ft 145 kts 259°
2026-04-24 18:55 33.95341 -118.38926 351 ft 146 kts 258°
2026-04-24 18:55 33.95220 -118.40114 140 ft 140 kts 259°
2026-04-24 18:55 33.95105 -118.41178 102 ft 101 kts 263°
2026-04-24 18:56 33.95051 -118.41763 103 ft 42 kts 263°
2026-04-24 18:56 33.94991 -118.42102 101 ft 35 kts 245°
2026-04-24 18:56 33.94904 -118.42233 103 ft 10 kts 221°
2026-04-24 18:56 33.94849 -118.42269 103 ft 10 kts 197°
2026-04-24 18:57 33.94763 -118.42277 102 ft 15 kts 176°
2026-04-24 18:57 33.94644 -118.42260 100 ft 13 kts 167°
2026-04-24 18:57 33.94613 -118.42188 102 ft 14 kts 94°
2026-04-24 18:57 33.94622 -118.42060 100 ft 17 kts 84°
2026-04-24 18:58 33.94630 -118.41902 102 ft 21 kts 88°
2026-04-24 18:58 33.94648 -118.41719 101 ft 23 kts 82°
2026-04-24 18:58 33.94670 -118.41511 100 ft 26 kts 83°
2026-04-24 18:58 33.94694 -118.41283 100 ft 27 kts 80°
2026-04-24 18:59 33.94726 -118.41121 102 ft 16 kts 78°
2026-04-24 18:59 33.94739 -118.40995 99 ft 14 kts 87°
2026-04-24 18:59 33.94731 -118.40957 101 ft 3 kts 123°
2026-04-24 18:59 33.94698 -118.40924 102 ft 9 kts 150°
2026-04-24 19:00 33.94628 -118.40901 100 ft 12 kts 173°
2026-04-24 19:00 33.94558 -118.40922 103 ft 10 kts 233°
2026-04-24 19:00 33.94543 -118.40989 102 ft 5 kts 260°
2026-04-24 19:00 33.94541 -118.41005 101 ft 0 kts 261°